This is the latest recevied weather packets stored in our database for station/object N5TDX. If no packets are shown the sender has not sent any weather packets the latest 10 day(s).
| Time | Temp. | Humidity | Pressure | Rain* | Wind** | Luminosity | Snow |
|---|---|---|---|---|---|---|---|
| 1778098858 | 17.78° C | 63% | 1010.9 hPa | 0 mm | - | - | - |
| 1778098555 | 18.33° C | 62% | 1011.1 hPa | 0 mm | - | - | - |
| 1778098252 | 17.78° C | 62% | 1011.2 hPa | 0 mm | - | - | - |
| 1778097948 | 17.22° C | 64% | 1011.4 hPa | 0 mm | - | - | - |
| 1778097645 | 17.22° C | 64% | 1011.4 hPa | 0 mm | - | - | - |
| 1778097341 | 17.22° C | 64% | 1011.5 hPa | 0 mm | - | - | - |
| 1778097038 | 16.67° C | 65% | 1011.6 hPa | 0 mm | - | - | - |
| 1778096736 | 16.67° C | 64% | 1011.7 hPa | 0 mm | - | - | - |
| 1778096432 | 16.67° C | 63% | 1011.9 hPa | 0 mm | - | - | - |
| 1778096129 | 16.67° C | 65% | 1011.5 hPa | 0 mm | - | - | - |
| 1778095827 | 16.67° C | 67% | 1011.8 hPa | 0 mm | - | - | - |
| 1778095523 | 16.11° C | 68% | 1011.9 hPa | 0 mm | - | - | - |
| 1778095219 | 15.56° C | 67% | 1012.1 hPa | 0 mm | - | - | - |
| 1778094916 | 15.56° C | 68% | 1012.4 hPa | 0 mm | - | - | - |
| 1778094612 | 15° C | 69% | 1012.1 hPa | 0 mm | - | - | - |
| 1778094309 | 15° C | 69% | 1012.1 hPa | 0 mm | - | - | - |
| 1778094006 | 15° C | 71% | 1012.2 hPa | 0 mm | - | - | - |
| 1778093704 | 14.44° C | 71% | 1012.2 hPa | 0 mm | - | - | - |
| 1778093400 | 14.44° C | 71% | 1012.4 hPa | 0 mm | - | - | - |
| 1778093097 | 14.44° C | 71% | 1012.4 hPa | 0 mm | - | - | - |
| 1778092794 | 14.44° C | 71% | 1012.6 hPa | 0 mm | - | - | - |
| 1778092490 | 14.44° C | 72% | 1012.3 hPa | 0 mm | - | - | - |
| 1778092187 | 14.44° C | 72% | 1012.1 hPa | 0 mm | - | - | - |
| 1778091884 | 14.44° C | 72% | 1011.8 hPa | 0 mm | - | - | - |
| 1778091581 | 14.44° C | 72% | 1011.5 hPa | 0 mm | - | - | - |
* Rain latest hour (hover to see other rain measurements)
** Current wind speed in m/s (hover to see current wind gust speed)